FW8609 Weather Reports


time (UTC)temp
F
wind
direction
speed
knots
gust
knots
rain 1hr
in
rain 24hr
in
rain mn
in
humidity
%
barometer
mb
20260502130255 52 187 6.1 8.7 0.00 0.00 0.00 94 1012.4
20260502123740 52 187 7.0 8.7 0.00 0.00 0.00 94 1012.3
20260502123237 52 182 7.0 8.7 0.00 0.00 0.00 94 1012.5
20260502122734 52 180 7.0 7.8 0.00 0.00 0.00 94 1012.6
20260502122230 52 182 6.1 8.7 0.00 0.00 0.00 94 1012.3
20260502121728 52 184 7.8 8.7 0.00 0.00 0.00 94 1012.7
20260502121226 52 186 7.0 8.7 0.00 0.00 0.00 94 1012.6
20260502120722 52 188 6.1 7.8 0.00 0.00 0.00 93 1012.7
20260502120219 52 191 6.1 7.8 0.00 0.00 0.00 93 1012.7
20260502115717 52 189 7.0 8.7 0.00 0.00 0.00 93 1012.8
20260502115213 52 202 7.8 9.6 0.00 0.00 0.00 94 1012.9
20260502114709 52 184 7.8 8.7 0.00 0.00 0.00 93 1012.8
20260502114207 52 174 8.7 8.7 0.00 0.00 0.00 94 1012.6
20260502113704 52 182 7.0 9.6 0.00 0.00 0.00 93 1012.7
20260502113201 52 178 7.8 8.7 0.00 0.00 0.00 93 1012.6
20260502112659 52 172 7.8 7.8 0.00 0.00 0.00 93 1012.5
20260502112156 52 185 6.1 7.8 0.00 0.00 0.00 93 1012.5
20260502111654 52 187 6.1 7.0 0.00 0.00 0.00 93 1012.6
20260502111151 52 184 7.0 7.8 0.00 0.00 0.00 93 1012.7
20260502110649 52 186 7.0 7.8 0.00 0.00 0.00 94 1012.7
20260502110146 52 178 7.0 7.8 0.00 0.00 0.00 94 1012.5
20260502105643 52 182 7.8 7.8 0.00 0.00 0.00 94 1012.6
20260502105140 52 187 7.0 8.7 0.00 0.00 0.00 94 1012.5
20260502104637 52 187 7.0 8.7 0.00 0.00 0.00 94 1012.7
20260502104135 52 186 7.0 8.7 0.00 0.00 0.00 94 1012.6
20260502103632 52 190 7.8 9.6 0.00 0.00 0.00 94 1012.7
20260502103130 52 186 7.0 7.8 0.00 0.00 0.00 94 1012.7
20260502102627 52 185 7.8 8.7 0.00 0.00 0.00 94 1012.5
20260502102123 52 185 7.0 7.8 0.00 0.00 0.00 94 1012.5
20260502101621 52 188 7.0 8.7 0.00 0.00 0.00 94 1012.7
20260502101120 52 194 7.0 7.8 0.00 0.00 0.00 94 1012.8
20260502100618 52 185 5.2 7.8 0.00 0.00 0.00 94 1012.8
20260502100116 52 190 7.0 7.8 0.00 0.00 0.00 95 1012.7
20260502091044 51 185 7.0 8.7 0.00 0.00 0.00 96 1013.4
20260502090541 51 182 7.0 8.7 0.00 0.00 0.00 96 1013.3
20260502071441 50 185 8.7 9.6 0.00 0.00 0.00 96 1013.9
20260502070939 50 184 8.7 10.4 0.00 0.00 0.00 96 1014.1
20260502070437 50 186 9.6 10.4 0.00 0.00 0.00 96 1014.2
20260502065935 50 185 6.1 9.6 0.00 0.00 0.00 96 1014.3
20260502065433 50 192 8.7 9.6 0.00 0.00 0.00 96 1014.1
20260502064931 50 188 7.0 8.7 0.00 0.00 0.00 95 1014.2
20260502064428 50 192 6.1 7.8 0.00 0.00 0.00 95 1014.4
20260502063920 50 194 7.0 8.7 0.00 0.00 0.00 95 1014.4
20260502063418 50 187 6.1 8.7 0.00 0.00 0.00 95 1014.1
20260502062915 50 193 6.1 7.8 0.00 0.00 0.00 95 1014.5
20260502062412 51 188 7.8 8.7 0.00 0.00 0.00 95 1014.3
20260502061911 51 185 7.8 9.6 0.00 0.00 0.00 95 1014.4
20260502061409 51 186 7.0 8.7 0.00 0.00 0.00 95 1014.5
20260502060904 51 188 6.1 8.7 0.00 0.00 0.00 95 1014.6
20260502060359 51 191 7.8 7.8 0.00 0.00 0.00 95 1014.4
20260502055857 51 198 7.8 8.7 0.00 0.00 0.00 95 1014.6
20260502055354 51 196 7.8 9.6 0.00 0.00 0.00 95 1014.7
20260502054854 51 187 7.0 8.7 0.00 0.00 0.00 95 1014.5
20260502054351 51 190 7.8 8.7 0.00 0.00 0.00 95 1014.7
20260502053848 51 190 7.8 8.7 0.00 0.00 0.00 94 1014.7
20260502053345 51 192 7.0 7.8 0.00 0.00 0.00 94 1014.5
20260502052843 51 190 7.0 7.8 0.00 0.00 0.00 94 1014.7
20260502052341 51 192 7.0 7.8 0.00 0.00 0.00 94 1014.8
20260502051838 51 194 7.8 7.8 0.00 0.00 0.00 94 1015.1
20260502051337 51 190 7.0 7.8 0.00 0.00 0.00 94 1014.9
20260502050833 51 189 7.0 7.8 0.00 0.00 0.00 94 1014.7
20260502050330 51 190 7.8 7.8 0.00 0.00 0.00 94 1015.0
20260502045827 51 189 7.0 8.7 0.00 0.00 0.00 93 1014.7
20260502045323 51 187 7.8 8.7 0.00 0.00 0.00 93 1015.0
20260502044820 51 189 7.0 8.7 0.00 0.00 0.00 93 1014.8
20260502044316 51 185 7.8 7.8 0.00 0.00 0.00 93 1014.9
20260502043814 52 183 7.0 7.8 0.00 0.00 0.00 93 1015.0
20260502043311 52 183 6.1 7.8 0.00 0.00 0.00 92 1014.9
20260502042810 52 186 7.0 7.8 0.00 0.00 0.00 92 1014.8
20260502042308 52 186 7.0 7.8 0.00 0.00 0.00 92 1014.7
20260502041806 52 183 7.0 7.8 0.00 0.00 0.00 92 1014.7
20260502041303 52 189 7.0 7.8 0.00 0.00 0.00 92 1014.7
20260502040800 52 187 7.0 7.0 0.00 0.00 0.00 92 1014.8
20260502040257 52 186 5.2 7.8 0.00 0.00 0.00 91 1014.6
20260502035753 53 185 6.1 7.0 0.00 0.00 0.00 91 1014.5
20260502035249 53 185 6.1 7.8 0.00 0.00 0.00 90 1014.6
20260502034747 53 180 5.2 7.8 0.00 0.00 0.00 90 1014.4
20260502034245 53 191 5.2 7.8 0.00 0.00 0.00 89 1014.6
20260502033743 53 183 7.0 7.0 0.00 0.00 0.00 90 1014.4
20260502033240 53 196 6.1 7.0 0.00 0.00 0.00 89 1014.4
20260502032737 54 180 5.2 7.0 0.00 0.00 0.00 89 1014.3
20260502032233 54 182 7.0 7.8 0.00 0.00 0.00 88 1014.1
20260502031731 54 180 6.1 7.8 0.00 0.00 0.00 87 1014.2
20260502031229 55 189 7.0 9.6 0.00 0.00 0.00 87 1014.3
20260502030727 55 183 7.8 8.7 0.00 0.00 0.00 87 1014.3
20260502030225 55 200 7.0 10.4 0.00 0.00 0.00 87 1013.9
20260502025721 55 184 7.8 8.7 0.00 0.00 0.00 86 1014.2
20260502025220 55 201 7.8 8.7 0.00 0.00 0.00 86 1014.1
20260502024717 55 197 7.0 9.6 0.00 0.00 0.00 85 1014.0
20260502024215 56 189 7.8 9.6 0.00 0.00 0.00 85 1013.8
20260502023713 56 188 6.1 7.8 0.00 0.00 0.00 84 1014.0
20260502023210 56 180 7.8 9.6 0.00 0.00 0.00 84 1013.8
20260502022708 56 185 8.7 8.7 0.00 0.00 0.00 84 1014.0
20260502022204 56 191 9.6 9.6 0.00 0.00 0.00 84 1014.1
20260502021701 57 180 8.7 9.6 0.00 0.00 0.00 83 1013.9
20260502021158 57 182 8.7 9.6 0.00 0.00 0.00 83 1014.1
20260502020655 57 184 8.7 9.6 0.00 0.00 0.00 82 1014.0
20260502020152 57 185 10.4 11.3 0.00 0.00 0.00 82 1014.0
20260502015650 58 191 9.6 10.4 0.00 0.00 0.00 82 1014.2
20260502015146 57 192 10.4 13.0 0.00 0.00 0.00 82 1014.2
20260502014644 58 194 10.4 13.0 0.00 0.00 0.00 80 1014.3
20260502014141 60 189 11.3 11.3 0.00 0.00 0.00 77 1014.1
20260502013637 60 195 9.6 12.2 0.00 0.00 0.00 78 1014.1
20260502013132 61 188 8.7 11.3 0.00 0.00 0.00 75 1014.2
20260502012630 61 184 7.8 11.3 0.00 0.00 0.00 75 1014.1
20260502012128 60 180 9.6 10.4 0.00 0.00 0.00 77 1014.2
20260502011624 59 192 8.7 11.3 0.00 0.00 0.00 79 1014.2
20260502011120 59 180 12.2 12.2 0.00 0.00 0.00 79 1014.1
20260502010618 61 188 7.0 9.6 0.00 0.00 0.00 76 1013.9
20260502010114 61 191 8.7 11.3 0.00 0.00 0.00 76 1014.3
20260502005612 61 188 8.7 11.3 0.00 0.00 0.00 76 1014.1
20260502005110 62 194 8.7 10.4 0.00 0.00 0.00 74 1014.1
20260502004605 63 197 9.6 11.3 0.00 0.00 0.00 73 1014.2
20260502004102 64 195 9.6 10.4 0.00 0.00 0.00 73 1014.5
20260502003600 64 191 10.4 11.3 0.00 0.00 0.00 73 1014.2
20260502003056 63 180 7.8 11.3 0.00 0.00 0.00 75 1014.1
20260502002553 63 182 8.7 10.4 0.00 0.00 0.00 74 1014.3
20260502002050 63 173 7.0 8.7 0.00 0.00 0.00 73 1014.4
20260502001548 63 170 7.8 9.6 0.00 0.00 0.00 72 1014.2
20260502001045 63 198 10.4 11.3 0.00 0.00 0.00 73 1014.2
20260502000543 63 189 8.7 9.6 0.00 0.00 0.00 73 1014.3
20260502000040 62 183 8.7 10.4 0.00 0.00 0.00 75 1014.4
20260501235535 62 198 10.4 10.4 0.00 0.00 0.00 75 1014.3
20260501235031 62 208 8.7 10.4 0.00 0.00 0.00 75 1014.5
20260501234527 62 186 9.6 10.4 0.00 0.00 0.00 75 1014.3
20260501234026 61 208 8.7 11.3 0.00 0.00 0.00 76 1014.5
20260501233523 60 198 11.3 17.4 0.00 0.00 0.00 78 1014.7
20260501233020 61 191 9.6 12.2 0.00 0.00 0.00 77 1014.4
20260501232516 62 192 9.6 11.3 0.00 0.00 0.00 75 1014.7
20260501232014 63 193 9.6 11.3 0.00 0.00 0.00 73 1014.6
20260501231512 63 194 8.7 11.3 0.00 0.00 0.00 73 1014.4
20260501231010 63 192 8.7 11.3 0.00 0.00 0.00 73 1014.6
20260501230508 64 189 9.6 10.4 0.00 0.00 0.00 72 1014.5
20260501230005 62 191 9.6 13.0 0.00 0.00 0.00 74 1014.8
20260501225503 62 199 6.1 11.3 0.00 0.00 0.00 74 1014.6
20260501224958 64 188 9.6 11.3 0.00 0.00 0.00 73 1014.8
20260501224457 63 194 8.7 10.4 0.00 0.00 0.00 75 1015.1
20260501223953 62 166 8.7 12.2 0.00 0.00 0.00 76 1014.9
20260501223449 64 181 8.7 8.7 0.00 0.00 0.00 74 1015.0
20260501222945 62 173 7.8 10.4 0.00 0.00 0.00 76 1015.2
20260501222442 63 161 6.1 10.4 0.00 0.00 0.00 75 1015.2
20260501221938 61 175 10.4 11.3 0.00 0.00 0.00 77 1015.3
20260501221436 62 180 10.4 11.3 0.00 0.00 0.00 76 1015.2
20260501220934 62 190 9.6 10.4 0.00 0.00 0.00 78 1015.4
20260501220431 60 173 6.1 13.0 0.00 0.00 0.00 78 1015.4
20260501215927 60 170 8.7 13.0 0.00 0.00 0.00 78 1015.5
20260501215424 60 169 8.7 11.3 0.00 0.00 0.00 78 1015.9
20260501214919 59 172 9.6 11.3 0.00 0.00 0.00 80 1015.8
20260501214415 59 179 8.7 12.2 0.00 0.00 0.00 79 1015.9
20260501213910 59 171 9.6 12.2 0.00 0.00 0.00 80 1016.1
20260501213408 59 176 10.4 13.0 0.00 0.00 0.00 83 1016.1
20260501212903 58 190 11.3 13.0 0.00 0.00 0.00 81 1016.2
20260501212400 58 199 11.3 12.2 0.00 0.00 0.00 81 1016.2
20260501211857 57 191 12.2 13.0 0.00 0.00 0.00 82 1016.0
20260501211354 57 193 9.6 13.0 0.00 0.00 0.00 83 1016.1
20260501210852 57 197 10.4 13.0 0.00 0.00 0.00 82 1016.2
20260501210348 57 198 10.4 14.8 0.00 0.00 0.00 83 1016.4
20260501205845 57 190 7.0 13.0 0.00 0.00 0.00 82 1016.3
20260501205342 57 194 11.3 13.0 0.00 0.00 0.00 84 1016.3
20260501204839 57 187 11.3 13.0 0.00 0.00 0.00 83 1016.3
20260501204335 56 194 7.8 13.0 0.00 0.00 0.00 83 1016.3
20260501203831 57 206 11.3 12.2 0.00 0.00 0.00 83 1016.4
20260501203329 57 193 9.6 13.0 0.00 0.00 0.00 83 1016.5
20260501202825 57 191 12.2 13.0 0.00 0.00 0.00 83 1016.5
20260501202322 57 190 12.2 13.9 0.00 0.00 0.00 83 1016.5
20260501201820 57 196 10.4 13.0 0.00 0.00 0.00 82 1016.3
20260501201316 58 178 11.3 11.3 0.00 0.00 0.00 82 1016.5
20260501200813 57 197 10.4 12.2 0.00 0.00 0.00 82 1016.4
20260501200310 57 198 11.3 12.2 0.00 0.00 0.00 82 1016.5
20260501195808 58 185 7.0 11.3 0.00 0.00 0.00 81 1016.5
20260501195305 57 183 8.7 12.2 0.00 0.00 0.00 82 1016.6
20260501194759 57 183 9.6 13.0 0.00 0.00 0.00 83 1016.8
20260501194255 57 192 9.6 13.0 0.00 0.00 0.00 83 1016.8
20260501193752 57 182 8.7 11.3 0.00 0.00 0.00 83 1016.6
20260501193250 56 189 11.3 12.2 0.00 0.00 0.00 84 1016.8
20260501192747 56 193 10.4 12.2 0.00 0.00 0.00 85 1016.9
20260501192244 56 190 9.6 13.0 0.00 0.00 0.00 84 1016.7
20260501191742 56 188 10.4 12.2 0.00 0.00 0.00 85 1016.9
20260501191239 56 185 11.3 12.2 0.00 0.00 0.00 85 1016.7
20260501190735 56 186 8.7 11.3 0.00 0.00 0.00 84 1016.8
20260501190231 56 191 10.4 14.8 0.00 0.00 0.00 85 1017.1
20260501185727 56 185 10.4 11.3 0.00 0.00 0.00 85 1017.1
20260501185223 56 194 7.8 12.2 0.00 0.00 0.00 85 1017.2
20260501184719 55 191 7.8 12.2 0.00 0.00 0.00 85 1016.9
20260501184215 55 191 9.6 11.3 0.00 0.00 0.00 86 1017.2
20260501183711 56 181 9.6 13.0 0.00 0.00 0.00 85 1017.1
20260501183208 56 183 10.4 11.3 0.00 0.00 0.00 86 1017.2
20260501182704 56 192 10.4 12.2 0.00 0.00 0.00 86 1017.0
20260501182201 56 193 11.3 11.3 0.00 0.00 0.00 85 1017.2
20260501181658 55 199 9.6 11.3 0.00 0.00 0.00 86 1017.1
20260501181155 55 210 11.3 11.3 0.00 0.00 0.00 86 1017.1
20260501180653 55 191 8.7 11.3 0.00 0.00 0.00 87 1017.3
20260501180149 55 197 8.7 11.3 0.00 0.00 0.00 87 1017.1
20260501175646 55 185 9.6 11.3 0.00 0.00 0.00 88 1017.2
20260501175143 55 189 9.6 11.3 0.00 0.00 0.00 88 1017.4
20260501174639 55 213 12.2 12.2 0.00 0.00 0.00 87 1017.4
20260501174137 55 190 8.7 10.4 0.00 0.00 0.00 87 1017.1
20260501173635 55 188 7.8 9.6 0.00 0.00 0.00 87 1017.2
20260501173131 55 196 8.7 10.4 0.00 0.00 0.00 88 1017.0
20260501172627 54 188 9.6 13.0 0.00 0.00 0.00 89 1017.0
20260501172122 54 183 10.4 11.3 0.00 0.00 0.00 89 1017.1
20260501171619 54 202 8.7 11.3 0.00 0.00 0.00 89 1017.1
20260501171116 54 187 9.6 10.4 0.00 0.00 0.00 89 1017.1
20260501170613 54 193 7.8 10.4 0.00 0.00 0.00 89 1016.7
20260501170109 54 189 7.8 12.2 0.00 0.00 0.00 89 1016.8
20260501165607 54 191 9.6 10.4 0.00 0.00 0.00 89 1016.9
20260501165104 54 184 7.8 10.4 0.00 0.00 0.00 89 1016.8
20260501164602 54 191 9.6 10.4 0.00 0.00 0.00 89 1017.0
20260501164058 54 191 9.6 10.4 0.00 0.00 0.00 90 1016.8
20260501163555 54 195 8.7 9.6 0.00 0.00 0.00 89 1016.9
20260501163052 54 190 7.8 9.6 0.00 0.00 0.00 89 1017.0
20260501162549 53 186 7.8 10.4 0.00 0.00 0.00 91 1017.1
20260501162045 54 189 9.6 10.4 0.00 0.00 0.00 91 1016.8
20260501161543 53 181 9.6 10.4 0.00 0.00 0.00 90 1017.0
20260501161039 54 180 9.6 10.4 0.00 0.00 0.00 90 1016.8
20260501160536 53 184 7.8 9.6 0.00 0.00 0.00 91 1016.9
20260501160033 53 186 8.7 10.4 0.00 0.00 0.00 91 1016.7
20260501155529 53 190 8.7 9.6 0.00 0.00 0.00 91 1016.9
20260501155027 53 194 8.7 10.4 0.00 0.00 0.00 91 1017.0
20260501154524 53 196 7.8 9.6 0.00 0.00 0.00 91 1016.7
20260501154020 53 190 7.0 8.7 0.00 0.00 0.00 91 1016.8
20260501153519 53 208 7.8 10.4 0.00 0.00 0.00 92 1016.8
20260501153014 53 191 9.6 10.4 0.00 0.00 0.00 92 1016.8
20260501152512 53 197 8.7 10.4 0.00 0.00 0.00 92 1016.6
20260501152009 53 199 7.8 9.6 0.00 0.00 0.00 92 1016.7
20260501151506 53 188 7.0 9.6 0.00 0.00 0.00 92 1016.4
20260501151003 53 195 7.8 9.6 0.00 0.00 0.00 92 1016.6
20260501150457 53 182 6.1 7.8 0.00 0.00 0.00 92 1016.5
20260501145954 53 183 7.0 7.8 0.00 0.00 0.00 93 1016.4
20260501145450 53 177 6.1 7.8 0.00 0.00 0.00 92 1016.5
20260501144949 53 196 7.0 9.6 0.00 0.00 0.00 93 1016.5
20260501144444 53 197 6.1 8.7 0.00 0.00 0.00 93 1016.4